�N����,����,�g�[���i���ԁj���x,�g�[�����x,��g�[���i���ցj���x,����
 2004/02/01, 0:00,19.9,66,10.4,11.4
 2004/02/01, 0:15,18,67,10.3,11.4
 2004/02/01, 0:30,17.2,66,10.2,11.3
 2004/02/01, 0:45,16.8,66,10.2,11.3
 2004/02/01, 1:00,16.4,66,10.1,11.3
 2004/02/01, 1:15,16.1,65,10.1,11.2
 2004/02/01, 1:30,15.6,66,10,11.2
 2004/02/01, 1:45,15.3,66,9.9,11.2
 2004/02/01, 2:00,15.1,66,9.9,11.2
 2004/02/01, 2:15,14.8,66,9.8,11.1
 2004/02/01, 2:30,14.5,66,9.6,11.1
 2004/02/01, 2:45,14.3,66,9.6,11.1
 2004/02/01, 3:00,14,66,9.5,11.1
 2004/02/01, 3:15,13.8,66,9.4,11
 2004/02/01, 3:30,13.6,66,9.4,11
 2004/02/01, 3:45,13.4,66,9.3,10.9
 2004/02/01, 4:00,13.2,66,9.2,10.9
 2004/02/01, 4:15,13.1,66.5,9.1,10.9
 2004/02/01, 4:30,12.8,67,9.1,10.8
 2004/02/01, 4:45,12.6,66.5,9,10.8
 2004/02/01, 5:00,12.5,67,8.9,10.7
 2004/02/01, 5:15,12.3,67,8.9,10.6
 2004/02/01, 5:30,12.2,67,8.7,10.6
 2004/02/01, 5:45,11.9,67,8.8,10.6
 2004/02/01, 6:00,11.8,67,8.6,10.5
 2004/02/01, 6:15,11.6,67,8.6,10.4
 2004/02/01, 6:30,11.4,67,8.5,10.4
 2004/02/01, 6:45,11.2,67,8.4,9.4
 2004/02/01, 7:00,11.1,67,8.3,9.3
 2004/02/01, 7:15,10.9,67.5,8.2,9.4
 2004/02/01, 7:30,14.4,71,8.2,9.4
 2004/02/01, 7:45,15.6,68.5,8.1,9.6
 2004/02/01, 8:00,15.1,67,8.1,9.8
 2004/02/01, 8:15,15.4,64,8,9.9
 2004/02/01, 8:30,16.8,65,8.1,10.9
 2004/02/01, 8:45,15.9,61.5,8.1,10.7
 2004/02/01, 9:00,17.4,70,8.1,10.6
 2004/02/01, 9:15,18.2,69,8.1,10.2
 2004/02/01, 9:30,19.1,66,8.5,10.5
 2004/02/01, 9:45,19.1,62.5,8.7,10.4
 2004/02/01,10:00,18.2,67,9.1,10.4
 2004/02/01,10:15,17.1,67,9,10.9
 2004/02/01,10:30,17.9,71,9.2,11.3
 2004/02/01,10:45,18,72.5,9.4,11.2
 2004/02/01,11:00,18.3,74,9.6,11.2
 2004/02/01,11:15,18.5,73.5,9.9,11.1
 2004/02/01,11:30,18.7,72,10.1,11.1
 2004/02/01,11:45,18.6,70,10.2,11.1
 2004/02/01,12:00,18.5,70,10.4,11
 2004/02/01,12:15,18.3,69.5,10.4,10.9
 2004/02/01,12:30,18.3,69,10.4,10.9
 2004/02/01,12:45,18.4,69.5,10.5,10.9
 2004/02/01,13:00,18.4,72,10.5,11
 2004/02/01,13:15,18.2,68.5,10.5,10.9
 2004/02/01,13:30,18.2,67,10.6,10.9
 2004/02/01,13:45,18.2,66,10.6,10.9
 2004/02/01,14:00,18.5,66,10.6,10.9
 2004/02/01,14:15,18.6,65,10.7,10.9
 2004/02/01,14:30,18.7,64,10.7,10.9
 2004/02/01,14:45,19,64,10.8,10.9
 2004/02/01,15:00,18.9,64,10.9,10.9
 2004/02/01,15:15,18.9,65,10.9,10.9
 2004/02/01,15:30,20.3,63,11,10.2
 2004/02/01,15:45,21,63,10.9,10.1
 2004/02/01,16:00,21.4,64,10.9,10.2
 2004/02/01,16:15,21.8,64,10.9,10.1
 2004/02/01,16:30,22,64,11,10.3
 2004/02/01,16:45,22,62,11.1,10.3
 2004/02/01,17:00,21,62,11.3,10.3
 2004/02/01,17:15,20.6,63.5,11,10.8
 2004/02/01,17:30,19.7,56,10.9,11
 2004/02/01,17:45,19,52.5,10.9,10.9
 2004/02/01,18:00,18.6,52,11,11
 2004/02/01,18:15,18.4,52,11.1,11
 2004/02/01,18:30,18.8,52,11.2,11.2
 2004/02/01,18:45,19,51,11.4,11.2
 2004/02/01,19:00,19.5,52,11.5,11.1
 2004/02/01,19:15,19.6,51.5,11.6,11.1
 2004/02/01,19:30,21.3,65,11.5,11.3
 2004/02/01,19:45,20.8,82,11.3,11.4
 2004/02/01,20:00,20.8,81,11.3,11.3
 2004/02/01,20:15,20.5,73.5,11.3,11.4
 2004/02/01,20:30,20.5,71,11.3,11.3
 2004/02/01,20:45,20.4,69.5,11.4,11.5
 2004/02/01,21:00,20.3,69,11.6,11.8
 2004/02/01,21:15,20,70,11.8,11.8
 2004/02/01,21:30,19.9,67,12.1,11.6
 2004/02/01,21:45,19.6,66,11.5,11.8
 2004/02/01,22:00,19.6,66,11.3,11.6
 2004/02/01,22:15,19.5,66,11.4,11.2
 2004/02/01,22:30,19.6,66,11.4,11.3
 2004/02/01,22:45,19.8,67.5,11.3,11.3
 2004/02/01,23:00,20.2,63,11.3,11.3
 2004/02/01,23:15,19.4,64.5,11.2,11.4
 2004/02/01,23:30,19.1,65,11.2,11.4
 2004/02/01,23:45,18.8,65,11.2,11.4
 2004/02/02, 0:00,18.5,65,11.2,11.4
 2004/02/02, 0:15,18.3,65,11.1,11.4
 2004/02/02, 0:30,18.1,64,11.2,11.4
 2004/02/02, 0:45,18,64,11.1,11.4
 2004/02/02, 1:00,17.9,65,11.1,11.5
 2004/02/02, 1:15,17.6,65,11.1,11.4
 2004/02/02, 1:30,17.5,65,11,11.4
 2004/02/02, 1:45,17.4,65,11.1,11.4
 2004/02/02, 2:00,17.3,65,11.1,11.5
 2004/02/02, 2:15,17.2,65,11,11.4
 2004/02/02, 2:30,17.1,65,11,11.4
 2004/02/02, 2:45,17,65,10.9,11.5
 2004/02/02, 3:00,16.9,65,11,11.5
 2004/02/02, 3:15,16.8,65,10.9,11.5
 2004/02/02, 3:30,16.7,65,10.9,11.5
 2004/02/02, 3:45,16.6,64,10.8,11.5
 2004/02/02, 4:00,16.5,65,10.7,11.5
 2004/02/02, 4:15,16.4,64.5,10.7,11.5
 2004/02/02, 4:30,16.3,65,10.8,11.5
 2004/02/02, 4:45,16.2,65,10.7,11.5
 2004/02/02, 5:00,16.2,65,10.6,11.5
 2004/02/02, 5:15,16.1,65,10.6,11.5
 2004/02/02, 5:30,16,65,10.6,11.5
 2004/02/02, 5:45,15.9,65,10.6,11.5
 2004/02/02, 6:00,15.9,65,10.5,11.5
 2004/02/02, 6:15,15.8,65,10.6,11.5
 2004/02/02, 6:30,15.7,65,10.6,11.5
 2004/02/02, 6:45,17.4,67.5,10.5,11.1
 2004/02/02, 7:00,18.5,71,10.6,10.5
 2004/02/02, 7:15,19,70,10.8,10.6
 2004/02/02, 7:30,19.5,67,10.7,10.6
 2004/02/02, 7:45,19,64,10.8,10.3
 2004/02/02, 8:00,18.2,65,10.7,10.3
 2004/02/02, 8:15,17.6,65,10.8,10.3
 2004/02/02, 8:30,17.3,65,10.8,10.3
 2004/02/02, 8:45,17.6,64.5,10.8,10.4
 2004/02/02, 9:00,18.4,63,10.9,10.5
 2004/02/02, 9:15,19,64,10.9,10.4
 2004/02/02, 9:30,19.4,64,10.9,10.4
 2004/02/02, 9:45,19.5,63,10.9,10.4
 2004/02/02,10:00,19.7,63,11,10.4
 2004/02/02,10:15,20,62.5,11,10.4
 2004/02/02,10:30,20.2,61,11.1,10.4
 2004/02/02,10:45,20.5,60,11.1,10.4
 2004/02/02,11:00,20.6,60,11.1,10.4
 2004/02/02,11:15,20.5,60,11.1,10.3
 2004/02/02,11:30,20.7,60,11.1,10.2
 2004/02/02,11:45,20.7,60.5,11.1,10.2
 2004/02/02,12:00,20.8,60,11.2,10.3
 2004/02/02,12:15,21,59,11.1,10.2
 2004/02/02,12:30,20.2,59,11.2,10.3
 2004/02/02,12:45,19.8,60,11.2,10.3
 2004/02/02,13:00,19.6,60,11.3,10.3
 2004/02/02,13:15,19.4,61,11.3,10.4
 2004/02/02,13:30,19.3,62,11.4,10.4
 2004/02/02,13:45,19.1,62,11.4,10.4
 2004/02/02,14:00,19,62,11.4,10.4
 2004/02/02,14:15,18.9,63,11.4,10.4
 2004/02/02,14:30,18.7,63,11.4,10.4
 2004/02/02,14:45,18.6,63,11.6,10.4
 2004/02/02,15:00,17.8,61,11.6,10.4
 2004/02/02,15:15,16.7,64,11.4,10.4
 2004/02/02,15:30,16.5,64,11.4,10.5
 2004/02/02,15:45,17.3,62.5,11.4,10.5
 2004/02/02,16:00,16.9,63,11.4,10.6
 2004/02/02,16:15,16.9,63.5,11.4,10.6
 2004/02/02,16:30,16.7,64,11.3,10.6
 2004/02/02,16:45,16.5,64,11.4,10.6
 2004/02/02,17:00,16.3,65,11.4,10.6
 2004/02/02,17:15,16.1,65,11.5,10.7
 2004/02/02,17:30,16,65,11.4,10.7
 2004/02/02,17:45,15.9,66,11.4,10.8
 2004/02/02,18:00,15.8,66,11.3,10.8
 2004/02/02,18:15,15.8,66.5,11.4,10.8
 2004/02/02,18:30,15.6,67,11.3,10.9
 2004/02/02,18:45,15.5,67,11.3,10.9
 2004/02/02,19:00,15.4,67,11.4,10.9
 2004/02/02,19:15,15.4,67,11.3,10.9
 2004/02/02,19:30,16.8,68,11.3,10.8
 2004/02/02,19:45,17.5,64,11.3,10.9
 2004/02/02,20:00,17.2,65,11.3,10.9
 2004/02/02,20:15,18.3,65.5,11.2,11
 2004/02/02,20:30,18.3,64,11.3,11
 2004/02/02,20:45,17.5,65.5,11.2,11.1
 2004/02/02,21:00,17.6,65,11.3,11.1
 2004/02/02,21:15,17.5,64,11.2,11.1
 2004/02/02,21:30,17.1,65,11.2,11.1
 2004/02/02,21:45,16.5,64.5,11.2,10.9
 2004/02/02,22:00,16.1,65,11.1,10.9
 2004/02/02,22:15,17.2,67.5,11.3,10.9
 2004/02/02,22:30,18.5,73,11.3,10.9
 2004/02/02,22:45,18.1,69.5,11.3,10.9
 2004/02/02,23:00,17.6,69,11.3,11
 2004/02/02,23:15,18.7,67,11.4,11.1
 2004/02/02,23:30,19.2,71,11.4,11
 2004/02/02,23:45,19.6,72.5,11.4,11
 2004/02/03, 0:00,20,74,11.5,11.1
 2004/02/03, 0:15,18.7,71.5,11.4,11.1
 2004/02/03, 0:30,18,73,11.5,11.1
 2004/02/03, 0:45,17.5,73,11.4,11.1
 2004/02/03, 1:00,17.2,73,11.5,11.2
 2004/02/03, 1:15,17,73,11.4,11.1
 2004/02/03, 1:30,16.7,73,11.4,11.2
 2004/02/03, 1:45,16.5,73,11.3,11.2
 2004/02/03, 2:00,16.4,73,11.3,11.2
 2004/02/03, 2:15,16.1,73.5,11.3,11.2
 2004/02/03, 2:30,15.9,74,11.3,11.2
 2004/02/03, 2:45,15.8,74,11.2,11.3
 2004/02/03, 3:00,15.6,74,11.3,11.3
 2004/02/03, 3:15,15.4,75,11.2,11.3
 2004/02/03, 3:30,15.3,75,11.2,11.3
 2004/02/03, 3:45,15.2,75,11.2,11.3
 2004/02/03, 4:00,15.1,76,11.2,11.3
 2004/02/03, 4:15,14.9,76,11.2,11
 2004/02/03, 4:30,14.8,76,11.1,10.6
 2004/02/03, 4:45,14.7,76,11.1,10.5
 2004/02/03, 5:00,14.6,76,11.1,10.6
 2004/02/03, 5:15,14.5,76,11.1,10.6
 2004/02/03, 5:30,14.3,77,11,10.6
 2004/02/03, 5:45,14.2,76.5,10.9,10.6
 2004/02/03, 6:00,14.1,77,10.9,10.7
 2004/02/03, 6:15,14.1,76,10.9,10.7
 2004/02/03, 6:30,14,76,10.8,10.7
 2004/02/03, 6:45,15.9,82,10.8,10.6
 2004/02/03, 7:00,17,84,10.8,10.6
 2004/02/03, 7:15,17.2,85,10.9,10.6
 2004/02/03, 7:30,17.3,81,10.8,10.5
 2004/02/03, 7:45,17.2,78.5,10.8,10.6
 2004/02/03, 8:00,18.1,77,10.8,10.5
 2004/02/03, 8:15,18.6,77,10.8,10.5
 2004/02/03, 8:30,19.8,76,10.6,10.6
 2004/02/03, 8:45,19,74,10.6,10.6
 2004/02/03, 9:00,17.8,77,10.7,10.6
 2004/02/03, 9:15,17.4,77,10.8,10.6
 2004/02/03, 9:30,17.1,77,10.8,10.7
 2004/02/03, 9:45,16.9,76,10.9,10.6
 2004/02/03,10:00,16.9,76,10.9,10.6
 2004/02/03,10:15,16.8,77,11.1,10.6
 2004/02/03,10:30,16.6,77,11.1,10.7
 2004/02/03,10:45,16.3,75.5,11,10.6
 2004/02/03,11:00,16.1,75,10.9,10.7
 2004/02/03,11:15,16.1,74.5,11.1,10.7
 2004/02/03,11:30,16.3,74,11.2,10.7
 2004/02/03,11:45,16.4,74,11.2,10.8
 2004/02/03,12:00,16.6,74,11.6,10.8
 2004/02/03,12:15,16.8,74,11.7,10.7
 2004/02/03,12:30,16.8,74,11.9,10.8
 2004/02/03,12:45,17.1,72.5,12.2,10.9
 2004/02/03,13:00,17.3,73,12.2,10.9
 2004/02/03,13:15,17.5,71,12.3,10.9
 2004/02/03,13:30,17.6,69,12.3,10.8
 2004/02/03,13:45,17,69.5,12.2,10.9
 2004/02/03,14:00,17.2,69,12.2,10.9
 2004/02/03,14:15,17.2,68.5,12.3,10.9
 2004/02/03,14:30,17.5,67,12.2,11
 2004/02/03,14:45,17.3,66.5,12.3,10.9
 2004/02/03,15:00,17,69,12.3,11
 2004/02/03,15:15,16.9,69.5,12.2,11.1
 2004/02/03,15:30,16.8,71,12.1,11.1
 2004/02/03,15:45,16.7,70,12.1,11
 2004/02/03,16:00,16.5,69,12.1,11.1
 2004/02/03,16:15,16.4,70,11.9,11.1
 2004/02/03,16:30,16.3,70,11.9,11.1
 2004/02/03,16:45,16,70,11.9,11.1
 2004/02/03,17:00,15.9,69,11.8,11.2
 2004/02/03,17:15,15.7,69,11.7,11.2
 2004/02/03,17:30,15.5,70,11.6,11.2
 2004/02/03,17:45,15.4,69.5,11.6,11.2
 2004/02/03,18:00,15.3,69,11.4,11.3
 2004/02/03,18:15,15.1,69.5,11.4,11.3
 2004/02/03,18:30,15,70,11.3,11.4
 2004/02/03,18:45,14.8,70,11.2,11.3
 2004/02/03,19:00,14.7,70,11.1,11.4
 2004/02/03,19:15,14.6,69,11.1,11.4
 2004/02/03,19:30,14.4,69,10.9,11.4
 2004/02/03,19:45,14.2,69,10.9,11.4
 2004/02/03,20:00,14.2,69,10.8,11.4
 2004/02/03,20:15,14,69,10.8,11.4
 2004/02/03,20:30,13.9,69,10.6,11.4
 2004/02/03,20:45,13.7,69,10.6,11.4
 2004/02/03,21:00,13.5,69,10.5,11.4
 2004/02/03,21:15,13.5,69,10.4,11.4
 2004/02/03,21:30,15,70,10.3,11.5
 2004/02/03,21:45,15.1,68.5,10.2,11.4
 2004/02/03,22:00,14.5,69,10.1,11.4
 2004/02/03,22:15,16,68,10.2,10.9
 2004/02/03,22:30,16.3,68,10.1,10.8
 2004/02/03,22:45,16.7,68,10.1,10.9
 2004/02/03,23:00,17,67,10,10.9
 2004/02/03,23:15,17.3,66.5,10,10.9
 2004/02/03,23:30,17.5,66,9.9,10.9
 2004/02/03,23:45,17.7,66,9.8,10.8
 2004/02/04, 0:00,18.1,65,9.8,10.9
 2004/02/04, 0:15,18,63.5,9.8,10.9
 2004/02/04, 0:30,18,61,9.7,10.9
 2004/02/04, 0:45,18,61.5,9.6,10.9
 2004/02/04, 1:00,18,64,9.5,10.9
 2004/02/04, 1:15,16.5,65,9.4,10.6
 2004/02/04, 1:30,15.7,67,9.4,10.5
 2004/02/04, 1:45,15.2,67,9.2,10.5
 2004/02/04, 2:00,14.9,68,9.2,10.4
 2004/02/04, 2:15,14.5,68,9.1,10.4
 2004/02/04, 2:30,14.2,69,9,10.5
 2004/02/04, 2:45,13.9,69.5,8.9,10.5
 2004/02/04, 3:00,13.6,70,8.9,10.4
 2004/02/04, 3:15,13.4,70,8.8,10.4
 2004/02/04, 3:30,13.1,71,8.8,10.4
 2004/02/04, 3:45,12.9,70,8.7,10.3
 2004/02/04, 4:00,12.8,71,8.6,10.3
 2004/02/04, 4:15,12.6,70.5,8.6,10.2
 2004/02/04, 4:30,12.4,70,8.4,10.2
 2004/02/04, 4:45,12.2,71,8.4,10.2
 2004/02/04, 5:00,12,71,8.3,10.1
 2004/02/04, 5:15,11.9,71.5,8.2,10.1
 2004/02/04, 5:30,11.8,72,8.2,10.1
 2004/02/04, 5:45,11.6,72,8.1,10.1
 2004/02/04, 6:00,11.5,72,8.1,10.1
 2004/02/04, 6:15,11.2,72.5,8.1,10
 2004/02/04, 6:30,11.1,73,7.9,9.9
 2004/02/04, 6:45,10.9,73,7.8,9.9
 2004/02/04, 7:00,14.8,77,7.8,9.9
 2004/02/04, 7:15,16.2,78,7.8,9.6
 2004/02/04, 7:30,19,82,7.7,9.5
 2004/02/04, 7:45,20.2,71.5,7.8,9.6
 2004/02/04, 8:00,22.3,67,7.8,9.5
 2004/02/04, 8:15,21.8,62,7.7,10.2
 2004/02/04, 8:30,19.7,64,7.7,10.1
 2004/02/04, 8:45,19.7,64,7.7,10.1
 2004/02/04, 9:00,19,58,7.8,10.2
 2004/02/04, 9:15,17.9,64,7.9,10
 2004/02/04, 9:30,17.3,67,8.2,10
 2004/02/04, 9:45,17,68.5,8.4,9.9
 2004/02/04,10:00,16.7,69,8.5,9.9
 2004/02/04,10:15,16.6,68.5,8.6,9.9
 2004/02/04,10:30,16.7,69,8.8,9.9
 2004/02/04,10:45,16.8,69,9.1,9.9
 2004/02/04,11:00,16.9,69,9.4,9.9
 2004/02/04,11:15,17,68,9.8,9.9
 2004/02/04,11:30,17.1,68,9.9,9.8
 2004/02/04,11:45,17.1,67,10.1,9.9
 2004/02/04,12:00,17.1,67,10.2,9.8
 2004/02/04,12:15,17.3,66,10.4,9.8
 2004/02/04,12:30,17.4,66,10.4,9.7
 2004/02/04,12:45,17.5,65,10.6,9.8
 2004/02/04,13:00,17.2,65,10.5,9.8
 2004/02/04,13:15,16.7,65.5,10.4,9.8
 2004/02/04,13:30,16.7,69,10.3,9.8
 2004/02/04,13:45,16.7,65.5,10.4,9.8
 2004/02/04,14:00,17.3,61,10.5,9.8
 2004/02/04,14:15,17.5,58.5,10.6,9.8
 2004/02/04,14:30,17.1,59,10.6,9.8
 2004/02/04,14:45,16.5,61,10.6,9.8
 2004/02/04,15:00,16.4,62,10.5,9.9
 2004/02/04,15:15,16.4,62,10.5,9.9
 2004/02/04,15:30,16.1,62,10.4,9.9
 2004/02/04,15:45,15.7,63,10.4,9.8
 2004/02/04,16:00,15.5,63,10.2,9.9
 2004/02/04,16:15,15.4,64,10.1,9.9
 2004/02/04,16:30,15.2,64,10.1,9.8
 2004/02/04,16:45,15.1,62.5,10,9.9
 2004/02/04,17:00,14.7,63,9.9,9.9
 2004/02/04,17:15,14.6,63,9.8,9.9
 2004/02/04,17:30,14.4,63,9.8,9.9
 2004/02/04,17:45,14.1,63,9.6,9.9
 2004/02/04,18:00,14,63,9.6,9.9
 2004/02/04,18:15,13.9,63,9.6,9.9
 2004/02/04,18:30,13.7,64,9.5,9.9
 2004/02/04,18:45,13.6,69,9.4,9.9
 2004/02/04,19:00,13.4,68,9.3,10
 2004/02/04,19:15,13.2,67,9.3,9.9
 2004/02/04,19:30,13.1,66,9.1,9.9
 2004/02/04,19:45,13,66,9.1,9.9
 2004/02/04,20:00,14,71,9.1,9.9
 2004/02/04,20:15,14.9,66,8.9,9.9
 2004/02/04,20:30,15.6,66,8.9,9.9
 2004/02/04,20:45,15.8,62.5,8.9,9.9
 2004/02/04,21:00,14.6,63,8.9,9.9
 2004/02/04,21:15,14,63,8.8,9.9
 2004/02/04,21:30,13.5,63,8.8,9.8
 2004/02/04,21:45,13.2,63,8.7,9.9
 2004/02/04,22:00,15.3,68,8.7,9.8
 2004/02/04,22:15,16.8,64.5,8.6,9.8
 2004/02/04,22:30,16.4,68,8.6,9.8
 2004/02/04,22:45,16.8,66.5,8.6,9.8
 2004/02/04,23:00,16.7,67,8.5,9.7
 2004/02/04,23:15,16.9,63,8.6,9.9
 2004/02/04,23:30,17.2,63,8.5,10.1
 2004/02/04,23:45,17.5,63,8.4,10.1
 2004/02/05, 0:00,16.9,59,8.3,10
 2004/02/05, 0:15,16,62.5,8.3,10.2
 2004/02/05, 0:30,15.3,62,8.3,10.2
 2004/02/05, 0:45,14.9,61.5,8.2,10.1
 2004/02/05, 1:00,14.4,62,8.1,10.2
 2004/02/05, 1:15,14.1,61,8.1,10.1
 2004/02/05, 1:30,13.9,61,8,10.1
 2004/02/05, 1:45,13.5,61,7.9,10.1
 2004/02/05, 2:00,13.3,61,7.9,10
 2004/02/05, 2:15,13,61.5,7.8,9.9
 2004/02/05, 2:30,12.8,62,7.8,10
 2004/02/05, 2:45,12.6,61.5,7.7,9.9
 2004/02/05, 3:00,12.3,62,7.6,9.8
 2004/02/05, 3:15,12.1,62,7.6,9.9
 2004/02/05, 3:30,12,62,7.5,9.8
 2004/02/05, 3:45,11.8,62,7.5,9.8
 2004/02/05, 4:00,11.6,62,7.4,9.8
 2004/02/05, 4:15,11.4,62.5,7.3,9.7
 2004/02/05, 4:30,11.2,63,7.3,9.7
 2004/02/05, 4:45,11.1,63,7.2,9.6
 2004/02/05, 5:00,11,62,7.1,9.6
 2004/02/05, 5:15,10.8,63,7.1,9.6
 2004/02/05, 5:30,10.6,63,7,9.6
 2004/02/05, 5:45,10.4,63,6.9,9.4
 2004/02/05, 6:00,10.3,63,6.8,9.4
 2004/02/05, 6:15,10.1,63,6.8,9.4
 2004/02/05, 6:30,12.1,68,6.7,9.2
 2004/02/05, 6:45,15.4,66,6.7,9.2
 2004/02/05, 7:00,16.4,80,6.6,9.4
 2004/02/05, 7:15,18.1,70,6.6,9.4
 2004/02/05, 7:30,17.7,60,6.5,9.3
 2004/02/05, 7:45,17.9,56,6.5,9.9
 2004/02/05, 8:00,19.3,59,6.5,9.8
 2004/02/05, 8:15,18,60,6.5,9.8
 2004/02/05, 8:30,18,60,6.6,9.7
 2004/02/05, 8:45,17.6,59.5,6.7,9.7
 2004/02/05, 9:00,17,60,6.7,9.6
 2004/02/05, 9:15,16.1,62,6.8,9.6
 2004/02/05, 9:30,15.7,63,7,9.5
 2004/02/05, 9:45,15.4,63,7.1,9.4
 2004/02/05,10:00,15.1,63,7.2,9.4
 2004/02/05,10:15,14.9,62.5,7.3,9.4
 2004/02/05,10:30,14.7,62,7.5,9.3
 2004/02/05,10:45,14.4,63,7.5,9.3
 2004/02/05,11:00,14.1,63,7.5,9.3
 2004/02/05,11:15,14.1,63,7.7,9.2
 2004/02/05,11:30,14,63,7.8,9.3
 2004/02/05,11:45,13.6,63,7.7,9.3
 2004/02/05,12:00,13.5,63,7.6,9.2
 2004/02/05,12:15,13.9,62,8,9.2
 2004/02/05,12:30,13.5,62,8,9.2
 2004/02/05,12:45,13.7,62.5,8.1,9.1
 2004/02/05,13:00,13.7,62,8.2,9.2
 2004/02/05,13:15,13.3,61.5,8.1,9.2
 2004/02/05,13:30,13.1,62,8.1,9.2
 2004/02/05,13:45,12.9,62,8.1,9.1
 2004/02/05,14:00,13.8,61,8.1,9.2
 2004/02/05,14:15,14.4,57.5,8.4,9.1
 2004/02/05,14:30,14.6,56,8.6,9.1
 2004/02/05,14:45,13.9,57.5,8.6,9.1
 2004/02/05,15:00,13.7,59,8.5,9.2
 2004/02/05,15:15,13.4,58,8.4,9.1
 2004/02/05,15:30,13.4,59,8.3,9.1
 2004/02/05,15:45,13.4,59,8.2,9.2
 2004/02/05,16:00,13.4,59,8.2,9.1
 2004/02/05,16:15,13.3,59,8.2,9.1
 2004/02/05,16:30,13.2,59,8.2,9.1
 2004/02/05,16:45,13,59,8.1,9.1
 2004/02/05,17:00,12.8,59,8.1,9.2
 2004/02/05,17:15,12.6,59,8.1,9.1
 2004/02/05,17:30,12.3,59,8.1,9.1
 2004/02/05,17:45,12.1,59,7.9,9.1
 2004/02/05,18:00,11.9,59,7.9,9.2
 2004/02/05,18:15,11.8,59,7.8,9.1
 2004/02/05,18:30,11.6,60,7.8,9.1
 2004/02/05,18:45,11.6,65,7.7,9.1
 2004/02/05,19:00,11.4,64,7.6,9
 2004/02/05,19:15,11.2,63,7.6,9
 2004/02/05,19:30,11,62,7.5,9
 2004/02/05,19:45,10.8,62,7.3,9.1
 2004/02/05,20:00,10.7,61,7.3,9
 2004/02/05,20:15,11.4,63,7.2,9
 2004/02/05,20:30,16.3,62,7.2,9.3
 2004/02/05,20:45,17.1,56,7.1,9.2
 2004/02/05,21:00,17.4,49,7,9.2
 2004/02/05,21:15,19.1,52,7,9.2
 2004/02/05,21:30,17.9,55,6.9,9.1
 2004/02/05,21:45,17.5,56,6.8,9.1
 2004/02/05,22:00,17.5,57,6.8,9.1
 2004/02/05,22:15,17.4,56.5,6.8,9.4
 2004/02/05,22:30,17.4,57,6.7,9.8
 2004/02/05,22:45,17.4,57,6.7,9.8
 2004/02/05,23:00,17.3,56,6.7,9.7
 2004/02/05,23:15,17.5,56.5,6.6,9.7
 2004/02/05,23:30,17.6,56,6.5,9.6
 2004/02/05,23:45,17.6,56.5,6.5,9.6
 2004/02/06, 0:00,17.5,54,6.4,9.6
 2004/02/06, 0:15,15.8,56,6.4,9.6
 2004/02/06, 0:30,15.1,56,6.4,9.5
 2004/02/06, 0:45,14.4,56,6.4,9.4
 2004/02/06, 1:00,14,56,6.3,9.4
 2004/02/06, 1:15,13.6,56,6.3,9.4
 2004/02/06, 1:30,13.2,56,6.2,9.3
 2004/02/06, 1:45,12.8,57,6.2,9.3
 2004/02/06, 2:00,12.6,57,6.2,9.2
 2004/02/06, 2:15,12.3,57,6.2,9.2
 2004/02/06, 2:30,12.1,57,6.2,9.1
 2004/02/06, 2:45,11.8,57,6.2,9.1
 2004/02/06, 3:00,11.6,58,6.1,9.1
 2004/02/06, 3:15,11.3,57.5,6.1,9
 2004/02/06, 3:30,11.1,58,5.9,9.1
 2004/02/06, 3:45,10.9,58,6.1,9
 2004/02/06, 4:00,10.7,58,5.9,9
 2004/02/06, 4:15,10.6,58,5.8,8.9
 2004/02/06, 4:30,10.4,58,5.8,8.9
 2004/02/06, 4:45,10.1,58.5,5.7,8.8
 2004/02/06, 5:00,10,59,5.7,8.8
 2004/02/06, 5:15,9.9,59,5.7,8.8
 2004/02/06, 5:30,9.7,59,5.5,8.6
 2004/02/06, 5:45,9.5,59,5.5,8.6
 2004/02/06, 6:00,9.4,59,5.4,8.5
 2004/02/06, 6:15,9.2,59,5.4,8.6
 2004/02/06, 6:30,9,59,5.3,8.4
 2004/02/06, 6:45,14.9,68.5,5.4,9.1
 2004/02/06, 7:00,17.4,70,5.3,9.4
 2004/02/06, 7:15,18.2,59.5,5.4,9.3
 2004/02/06, 7:30,16.1,61,5.4,9.3
 2004/02/06, 7:45,15.6,66.5,5.5,9.7
 2004/02/06, 8:00,16.1,74,5.5,9.9
 2004/02/06, 8:15,16.1,72.5,5.5,9.9
 2004/02/06, 8:30,14.9,68,5.6,9.8
 2004/02/06, 8:45,13.2,69.5,5.7,9.8
 2004/02/06, 9:00,12.7,69,5.7,9.7
 2004/02/06, 9:15,12.5,69,5.9,9.6
 2004/02/06, 9:30,12.5,69,6.2,9.5
 2004/02/06, 9:45,12.4,69,6.3,9.5
 2004/02/06,10:00,12.5,69,6.5,9.4
 2004/02/06,10:15,12.6,70,6.8,9.4
 2004/02/06,10:30,12.7,69,7.1,9.3
 2004/02/06,10:45,12.8,68.5,7.3,9.2
 2004/02/06,11:00,12.8,69,7.6,9.2
 2004/02/06,11:15,12.9,68,7.8,9.2
 2004/02/06,11:30,13,66,8.2,9.2
 2004/02/06,11:45,12.9,66,8.2,9.1
 2004/02/06,12:00,12.6,65,8.1,9.1
 2004/02/06,12:15,12.3,65,7.9,9
 2004/02/06,12:30,12.1,64,7.8,9
 2004/02/06,12:45,12.1,66,7.8,9
 2004/02/06,13:00,11.9,66,7.8,9
 2004/02/06,13:15,12.1,65.5,7.8,9
 2004/02/06,13:30,12.5,59,8,9
 2004/02/06,13:45,12.1,61,8,8.9
 2004/02/06,14:00,12,63,7.9,8.9
 2004/02/06,14:15,12.1,60,7.9,8.9
 2004/02/06,14:30,12.1,60,8,8.9
 2004/02/06,14:45,11.6,64,7.8,8.9
 2004/02/06,15:00,11.4,66,7.8,8.9
 2004/02/06,15:15,11.6,68,7.8,8.9
 2004/02/06,15:30,11.5,68,7.8,8.9
 2004/02/06,15:45,11.5,67,7.8,8.9
 2004/02/06,16:00,11.4,68,7.8,8.9
 2004/02/06,16:15,11.3,68,7.8,8.9
 2004/02/06,16:30,11.2,67,7.8,8.9
 2004/02/06,16:45,10.9,67,7.7,8.8
 2004/02/06,17:00,10.8,69,7.6,8.9
 2004/02/06,17:15,10.6,69,7.6,8.9
 2004/02/06,17:30,10.6,71,7.6,8.9
 2004/02/06,17:45,10.4,71,7.5,8.9
 2004/02/06,18:00,10.4,70,7.5,8.9
 2004/02/06,18:15,10.2,70,7.4,8.9
 2004/02/06,18:30,10.1,70,7.4,8.8
 2004/02/06,18:45,9.9,70,7.3,8.9
 2004/02/06,19:00,9.8,70,7.3,8.8
 2004/02/06,19:15,9.7,70,7.2,8.8
 2004/02/06,19:30,9.6,70,7.2,8.8
 2004/02/06,19:45,9.6,70.5,7.2,8.8
 2004/02/06,20:00,9.5,71,7.1,8.8
 2004/02/06,20:15,9.4,70,7.1,8.8
 2004/02/06,20:30,9.3,70,7,8.8
 2004/02/06,20:45,9.2,70.5,6.9,8.8
 2004/02/06,21:00,9.1,70,6.9,8.7
 2004/02/06,21:15,9,70,6.8,8.7
 2004/02/06,21:30,8.9,70,6.8,8.7
 2004/02/06,21:45,10.6,71,6.8,8.8
 2004/02/06,22:00,14.7,73,6.8,8.7
 2004/02/06,22:15,15.2,71,6.8,8.7
 2004/02/06,22:30,14.6,72,6.8,8.7
 2004/02/06,22:45,15.1,71,6.8,8.6
 2004/02/06,23:00,15.5,69,6.7,8.7
 2004/02/06,23:15,15.6,68.5,6.7,8.6
 2004/02/06,23:30,15.7,68,6.6,8.6
 2004/02/06,23:45,14.8,67.5,6.6,9.2
 2004/02/07, 0:00,13.6,66,6.5,9.9
 2004/02/07, 0:15,13.1,66,6.5,9.9
 2004/02/07, 0:30,12.6,66,6.5,9.8
 2004/02/07, 0:45,12.2,66,6.4,9.8
 2004/02/07, 1:00,11.9,66,6.4,9.7
 2004/02/07, 1:15,11.6,66,6.3,9.7
 2004/02/07, 1:30,11.2,66,6.4,9.6
 2004/02/07, 1:45,11,66,6.2,9.6
 2004/02/07, 2:00,10.8,66,6.2,9.6
 2004/02/07, 2:15,10.6,66,6.1,9.5
 2004/02/07, 2:30,10.3,66,6.1,9.4
 2004/02/07, 2:45,10.1,66,6.1,9.4
 2004/02/07, 3:00,9.8,67,6,9.4
 2004/02/07, 3:15,9.7,66.5,5.9,9.4
 2004/02/07, 3:30,9.5,67,5.9,9.3
 2004/02/07, 3:45,9.4,66.5,5.8,9.2
 2004/02/07, 4:00,9.3,67,5.8,9.2
 2004/02/07, 4:15,9.1,67,5.7,9.1
 2004/02/07, 4:30,8.9,67,5.7,9.1
 2004/02/07, 4:45,8.8,67,5.7,9.1
 2004/02/07, 5:00,8.6,67,5.5,9
 2004/02/07, 5:15,8.5,66,5.5,9
 2004/02/07, 5:30,8.4,66,5.5,8.9
 2004/02/07, 5:45,8.2,66.5,5.4,8.9
 2004/02/07, 6:00,8.1,67,5.4,8.8
 2004/02/07, 6:15,8,67,5.3,8.8
 2004/02/07, 6:30,7.9,67,5.3,8.8
 2004/02/07, 6:45,7.8,67,5.2,8.6
 2004/02/07, 7:00,7.7,67,5.2,8.7
 2004/02/07, 7:15,7.6,67,5.2,8.6
 2004/02/07, 7:30,7.4,67,5.2,8.5
 2004/02/07, 7:45,12.6,72,5.1,8.4
 2004/02/07, 8:00,14.9,75,5.1,8.3
 2004/02/07, 8:15,15.4,85,5,8.2
 2004/02/07, 8:30,15.6,84,5.2,8.2
 2004/02/07, 8:45,15.5,77.5,5.2,8.8
 2004/02/07, 9:00,15.6,74,5.2,10.2
 2004/02/07, 9:15,16.8,74.5,5.4,10.1
 2004/02/07, 9:30,17.4,69,5.5,9.9
 2004/02/07, 9:45,17.2,67,5.8,9.8
 2004/02/07,10:00,16.9,64,6,9.6
 2004/02/07,10:15,15.4,67.5,6.1,9.6
 2004/02/07,10:30,17.3,65,6.2,9.5
 2004/02/07,10:45,17.6,60.5,6.4,9.4
 2004/02/07,11:00,17.5,63,6.5,9.5
 2004/02/07,11:15,18.1,63,6.7,9.2
 2004/02/07,11:30,19,61,7,9
 2004/02/07,11:45,19.6,58.5,7.4,9
 2004/02/07,12:00,20.2,57,7.6,9
 2004/02/07,12:15,21.9,52,7.8,8.9
 2004/02/07,12:30,23.2,50,8.2,8.9
 2004/02/07,12:45,23.1,51,8.4,9.2
 2004/02/07,13:00,22.6,52,8.4,9.2
 2004/02/07,13:15,22.6,51.5,8.4,9.1
 2004/02/07,13:30,22.9,50,8.5,9.2
 2004/02/07,13:45,22.9,49,8.6,9.2
 2004/02/07,14:00,23,46,8.7,9.3
 2004/02/07,14:15,23.5,48,8.8,9.2
 2004/02/07,14:30,23.7,48,8.9,9.2
 2004/02/07,14:45,22.8,47.5,9,9.2
 2004/02/07,15:00,21.5,48,9,9.2
 2004/02/07,15:15,20.9,48.5,9,9.2
 2004/02/07,15:30,20.1,48,9,9.3
 2004/02/07,15:45,19.5,48.5,8.9,9.2
 2004/02/07,16:00,19,49,8.9,9.2
 2004/02/07,16:15,18.5,49,8.9,9.2
 2004/02/07,16:30,18.1,50,8.8,9.2
 2004/02/07,16:45,17.6,50.5,8.8,9.3
 2004/02/07,17:00,17.3,51,8.7,9.3
 2004/02/07,17:15,16.9,51.5,8.6,9.3
 2004/02/07,17:30,16.6,51,8.6,9.3
 2004/02/07,17:45,16.1,52,8.6,9.3
 2004/02/07,18:00,15.8,53,8.5,9.3
 2004/02/07,18:15,15.5,53,8.4,9.4
 2004/02/07,18:30,15.2,53,8.3,9.3
 2004/02/07,18:45,14.9,53.5,8.2,9.4
 2004/02/07,19:00,15.4,54,8.3,9.4
 2004/02/07,19:15,19.4,53,8.2,9.3
 2004/02/07,19:30,18.8,55,8.2,9.4
 2004/02/07,19:45,18.8,55.5,8.1,9.4
 2004/02/07,20:00,18.9,56,8.1,9.3
 2004/02/07,20:15,19.1,55.5,8.1,9.4
 2004/02/07,20:30,19.3,55,7.9,9.3
 2004/02/07,20:45,19.3,54.5,7.9,9.6
 2004/02/07,21:00,19.3,54,7.9,10.7
 2004/02/07,21:15,19.4,54.5,7.8,10.6
 2004/02/07,21:30,19.6,55,7.8,10.7
 2004/02/07,21:45,19.6,55.5,7.8,10
 2004/02/07,22:00,19.6,53,7.7,9.9
 2004/02/07,22:15,19.8,54,7.6,9.9
 2004/02/07,22:30,20,54,7.6,9.6
 2004/02/07,22:45,20,54,7.6,9.6
 2004/02/07,23:00,20.1,54,7.6,9.7
 2004/02/07,23:15,19.8,53,7.5,9.9